Location: ????????
(60.5616°N, 46.8254°E)
Time: 02:20:12
(UTC+00:00)

Cosmos 1743 Rocket - Pass Details

Date: 18 February 2020
Orbit: 605 x 632 km, 82.6° (Epoch: 09 April)

Event Time Altitude Azimuth Distance (km) Brightness Sun altitude
Rises 14:47:04 0° 180° (S) 2,886 7.1 -7.8°
Reaches altitude 10° 14:49:18 10° 177° (S) 1,980 6.2 -8.0°
Maximum altitude 14:53:37 60° 98° (E) 711 3.6 -8.6°
Drops below altitude 10° 14:57:55 10° 19° (NNE) 1,980 5.9 -9.1°
Sets 15:00:10 0° 16° (NNE) 2,886 6.8 -9.4°
